Regional Weather Roundup
Issued by NWS

Home | Current Version | Previous Version | Text Only | Print | Product List | Glossary Off
Versions: 1 2 3 4 5 6 7 8 9 10 11 12 13 14 15 16 17 18 19 20 21 22 23 24 25 26 27 28 29 30 31 32 33 34 35 36 37 38 39 40 41 42 43 44 45 46 47 48 49 50

000
ASUS43 KDMX 231507
RWRIA

WEATHER ROUNDUP FOR IOWA
NATIONAL WEATHER SERVICE DES MOINES IA
900 AM CST SUN NOV 23 2014

NOTE: "FAIR" INDICATES FEW OR NO CLOUDS BELOW 12,000 FEET WITH NO
SIGNIFICANT WEATHER AND/OR OBSTRUCTIONS TO VISIBILITY.

* - THESE STATIONS ARE NOT NWS STATIONS...THUS NOT UNDER NWS
QUALITY CONTROL.  THEY ALSO DO NOT REPORT WEATHER SUCH
AS PRECIPITATION OR FOG.

IAZ001>003-012>014-020>022-031>034-043>046-231600-
   NORTHWEST IOWA

CITY           SKY/WX    TMP DP  RH WIND       PRES   REMARKS
CARROLL *      CLOUDY    52  52 100 S8        29.48S
CHEROKEE *     CLOUDY    52  52 100 W6        29.46S
DENISON *      CLOUDY    52  52 100 SW9       29.45F
LE MARS *      SUNNY     45  39  81 NW9       29.51R
ORANGE CITY *  SUNNY     45  39  81 NW8       29.49R
SHELDON *      MOSUNNY   43  43 100 W8        29.47R
SIOUX CITY     CLOUDY    46  38  73 NW14      29.51R
SPENCER        CLOUDY    50  48  93 SW10      29.46S FOG
STORM LAKE *   CLOUDY    50  50 100 SW12      29.47F FOG
$$

IAZ055>058-069>071-079>083-090>094-231600-
   SOUTHWEST IOWA

CITY           SKY/WX    TMP DP  RH WIND       PRES   REMARKS
ATLANTIC *     CLOUDY    52  52 100 SW8       29.49S FOG
AUDUBON *      MOSUNNY   52  48  87 S7        29.49S
CLARINDA *     CLOUDY    54  54 100 S6        29.50F FOG
COUNCIL BLFS * CLOUDY    54  54 100 SW6       29.48R
CRESTON *      FOG       52  52 100 S9        29.50S VSB 1/4
HARLAN  *      CLOUDY    52  52 100 SW7       29.52S
LAMONI         FOG       50  50 100 SE12      29.51F VSB 1/2
RED OAK *      CLOUDY    54  54 100 S9        29.49F FOG
SHENANDOAH *   CLOUDY    54  54 100 S8        29.49F FOG
$$

IAZ047>049-059>061-072>074-084-231600-
   CENTRAL IOWA

CITY           SKY/WX    TMP DP  RH WIND       PRES   REMARKS
AMES           CLOUDY    51  49  92 S3        29.51F FOG
ANKENY *       CLOUDY    52  52 100 S8        29.51F
CHARITON *     FOG       52  50  93 SE9       29.52F VSB 1
DES MOINES     CLOUDY    53  50  89 S7        29.51F
GRINNELL*      LGT RAIN  50  48  93 SE13      29.53F
KNOXVILLE *    CLOUDY    52  50  93 SE10      29.51F FOG
MARSHALLTOWN   CLOUDY    51  50  96 S9        29.52F
PELLA *        RAIN      52  50  93 SE10      29.53F
PERRY *        RAIN      52  50  93 S6        29.50S
$$

IAZ004>006-015-016-023>025-035-036-231600-
   NORTH CENTRAL IOWA

CITY           SKY/WX    TMP DP  RH WIND       PRES   REMARKS
ALGONA *       CLOUDY    50  50 100 S15       29.48S
CLARION *      CLOUDY    50  50 100 S14       29.48F FOG
ESTHERVILLE    CLOUDY    49  48  97 S10       29.45S FOG
FORT DODGE *   CLOUDY    52  48  87 S10       29.49F
MASON CITY     CLOUDY    50  50 100 S8        29.50F FOG
FOREST CITY *  CLOUDY    52  52 100 S10       29.48F
IOWA FALLS *   LGT RAIN  50  48  93 S10       29.53F
$$

IAZ007>011-017>019-026>030-037>042-050>054-066-231600-
   NORTHEAST IOWA

CITY           SKY/WX    TMP DP  RH WIND       PRES   REMARKS
CEDAR RAPIDS   RAIN      49  49 100 S12       29.57F FOG
CHARLES CITY * CLOUDY    50  50 100 S12       29.52F FOG
CLINTON *      CLOUDY    48  46  93 S9        29.65F
DECORAH *      CLOUDY    50  50 100 S9G15     29.53F FOG
DUBUQUE        LGT RAIN  48  48 100 S18       29.60F FOG
MONTICELLO *   LGT RAIN  48  48 100 SE12      29.60R
OELWEIN *      FOG       50  50 100 S15       29.56S VSB 1
WATERLOO       CLOUDY    50  50 100 S10       29.54F FOG
$$

IAZ064-065-067-068-078-231600-
   EAST CENTRAL IOWA

CITY           SKY/WX    TMP DP  RH WIND       PRES   REMARKS
DAVENPORT      RAIN      50  47  89 S13       29.63F FOG
IOWA CITY      LGT RAIN  49  49 100 SE8       29.60F FOG
MT. PLEASANT * RAIN      50  50 100 S7        29.60F
MUSCATINE *    RAIN      50  48  93 SE5       29.61F
QUAD CITIES    RAIN      51  48  89 S13       29.62F FOG
$$

IAZ062-063-075>077-085>089-095>099-231600-
   SOUTHEAST IOWA

CITY           SKY/WX    TMP DP  RH WIND       PRES   REMARKS
BURLINGTON     LGT RAIN  50  49  96 S8        29.61F FOG
FAIRFIELD *    RAIN      50  50 100 S9        29.58F
FORT MADISON * LGT RAIN  52  52 100 SE7       29.62S
KEOKUK *       CLOUDY    54  52  94 S10G17    29.59F
OSKALOOSA *    RAIN      50  48  93 S10       29.55F
CENTERVILLE *  HVY RAIN  50  50 100 SE7       29.55F
OTTUMWA        RAIN      51  49  92 S10       29.55F FOG
WASHINGTON *   LGT RAIN  50  50 100 S10       29.58F
$$

ABBREVIATIONS USED IN REMARKS
   TC - TEMPERATURES IN CELSIUS
  WCI - WIND CHILL INDEX
   HX - HEAT INDEX
  VSB - VISIBILITY
$$




USA.gov is the U.S. government's official web portal to all federal, state and local government web resources and services.